Temperatur und Luftfeuchte: Die letzten 100 Werte

Nummer Datum Zeit Sensor Temp Celsius Gef├╝hlte Temp Luftfeuchte in %
626 2018-12-15 04:19:03 ESP12E-S1 0.00 -2.30 63.10
625 2018-12-15 03:50:49 ESP12E-S1 0.10 -2.18 63.20
624 2018-12-15 03:22:34 ESP12E-S1 0.10 -2.20 62.50
623 2018-12-15 02:54:19 ESP12E-S1 0.10 -2.22 62.00
622 2018-12-15 02:26:04 ESP12E-S1 0.10 -2.24 61.20
621 2018-12-15 01:57:49 ESP12E-S1 0.10 -2.25 60.70
620 2018-12-15 01:29:34 ESP12E-S1 0.10 -2.27 59.80
619 2018-12-15 01:01:18 ESP12E-S1 0.10 -2.28 59.40
618 2018-12-15 00:33:02 ESP12E-S1 0.10 -2.28 59.60
617 2018-12-15 00:04:51 ESP12E-S1 0.10 -2.30 58.80
616 2018-12-14 23:36:34 ESP12E-S1 0.10 -2.28 59.40
615 2018-12-14 23:08:19 ESP12E-S1 0.10 -2.31 58.50
614 2018-12-14 22:40:03 ESP12E-S1 0.20 -2.21 58.10
613 2018-12-14 22:11:48 ESP12E-S1 0.20 -2.20 58.40
612 2018-12-14 21:43:44 ESP12E-S1 0.10 -2.34 57.40
611 2018-12-14 21:15:27 ESP12E-S1 0.10 -2.31 58.30
610 2018-12-14 20:47:12 ESP12E-S1 0.10 -2.31 58.20
609 2018-12-14 20:18:57 ESP12E-S1 0.00 -2.43 58.10
608 2018-12-14 19:50:43 ESP12E-S1 0.10 -2.33 57.80
607 2018-12-14 19:22:27 ESP12E-S1 0.00 -2.45 57.20
606 2018-12-14 18:54:13 ESP12E-S1 0.10 -2.33 57.50
605 2018-12-14 18:25:57 ESP12E-S1 0.20 -2.21 57.90
604 2018-12-14 17:57:42 ESP12E-S1 0.20 -2.24 57.00
603 2018-12-14 17:29:28 ESP12E-S1 0.40 -1.98 58.40
602 2018-12-14 17:01:36 ESP12E-S1 0.50 -1.85 59.10
601 2018-12-14 16:33:26 ESP12E-S1 0.60 -1.75 58.90
600 2018-12-14 16:04:54 ESP12E-S1 0.70 -1.63 59.10
599 2018-12-14 15:36:24 ESP12E-S1 0.90 -1.42 58.80
598 2018-12-14 15:08:53 ESP12E-S1 1.20 -1.08 59.10
597 2018-12-14 14:03:08 ESP12E-S1 0.90 -1.39 59.80
596 2018-12-14 13:34:49 ESP12E-S1 0.70 -1.63 59.20
595 2018-12-14 13:06:32 ESP12E-S1 0.90 -1.39 59.90
594 2018-12-14 12:38:16 ESP12E-S1 0.80 -1.50 60.10
593 2018-12-14 12:10:00 ESP12E-S1 0.80 -1.49 60.40
592 2018-12-14 11:41:45 ESP12E-S1 0.70 -1.60 60.30
591 2018-12-14 11:13:30 ESP12E-S1 0.70 -1.59 60.70
590 2018-12-14 10:45:15 ESP12E-S1 0.60 -1.68 61.30
589 2018-12-14 10:16:59 ESP12E-S1 0.60 -1.70 60.80
588 2018-12-14 09:48:47 ESP12E-S1 0.50 -1.82 60.30
587 2018-12-14 09:20:30 ESP12E-S1 0.40 -1.91 61.00
586 2018-12-14 08:52:16 ESP12E-S1 0.40 -1.93 60.20
585 2018-12-14 08:24:01 ESP12E-S1 0.40 -1.90 61.40
584 2018-12-14 07:55:46 ESP12E-S1 0.40 -1.90 61.30
583 2018-12-14 07:27:31 ESP12E-S1 0.40 -1.91 61.20
582 2018-12-14 06:59:16 ESP12E-S1 0.40 -1.92 60.70
581 2018-12-14 06:31:00 ESP12E-S1 0.40 -1.93 60.20
580 2018-12-14 06:02:45 ESP12E-S1 0.40 -1.93 60.20
579 2018-12-14 05:34:31 ESP12E-S1 0.40 -1.94 59.90
578 2018-12-14 05:06:16 ESP12E-S1 0.40 -1.92 60.70
577 2018-12-14 04:37:39 ESP12E-S1 0.50 -1.79 61.30
576 2018-12-14 04:09:59 ESP12E-S1 0.60 -1.68 61.60
575 2018-12-14 03:39:35 ESP12E-S1 0.60 -1.68 61.40
574 2018-12-14 03:07:22 ESP12E-S1 0.70 -1.60 60.30
573 2018-12-14 02:39:08 ESP12E-S1 0.60 -1.70 60.80
572 2018-12-14 02:10:53 ESP12E-S1 0.70 -1.60 60.30
571 2018-12-14 01:42:38 ESP12E-S1 0.70 -1.58 61.10
570 2018-12-14 01:14:24 ESP12E-S1 0.70 -1.59 60.80
569 2018-12-14 00:46:09 ESP12E-S1 0.90 -1.36 61.10
568 2018-12-14 00:18:31 ESP12E-S1 0.80 -1.47 61.00
567 2018-12-13 23:50:10 ESP12E-S1 0.90 -1.37 60.80
566 2018-12-13 23:22:19 ESP12E-S1 1.00 -1.28 60.10
565 2018-12-13 22:54:03 ESP12E-S1 1.10 -1.16 60.40
564 2018-12-13 22:26:00 ESP12E-S1 1.10 -1.12 61.70
563 2018-12-13 21:56:52 ESP12E-S1 1.20 -1.04 60.80
562 2018-12-13 21:28:32 ESP12E-S1 1.20 -1.01 61.90
561 2018-12-13 21:00:17 ESP12E-S1 1.30 -0.89 62.20
560 2018-12-13 20:32:02 ESP12E-S1 1.30 -0.92 61.20
559 2018-12-13 20:03:47 ESP12E-S1 1.40 -0.81 61.00
558 2018-12-13 19:35:33 ESP12E-S1 1.50 -0.69 61.50
557 2018-12-13 19:07:38 ESP12E-S1 1.60 -0.59 60.90
556 2018-12-13 18:39:17 ESP12E-S1 1.60 -0.59 61.10
555 2018-12-13 18:11:02 ESP12E-S1 1.70 -0.45 62.10
554 2018-12-13 17:42:47 ESP12E-S1 1.80 -0.41 59.40
553 2018-12-13 17:14:35 ESP12E-S1 2.20 0.02 59.20
552 2018-12-13 16:46:20 ESP12E-S1 2.30 0.11 58.50
551 2018-12-13 16:17:58 ESP12E-S1 2.80 0.64 57.80
550 2018-12-13 15:50:08 ESP12E-S1 3.40 1.29 57.20
549 2018-12-13 15:15:10 ESP12E-S1 4.30 2.19 53.90
548 2018-12-13 14:47:00 ESP12E-S1 5.60 3.64 54.70
547 2018-12-13 14:18:27 ESP12E-S1 5.50 3.57 56.00
546 2018-12-13 13:50:15 ESP12E-S1 5.00 3.00 55.40
545 2018-12-13 13:22:00 ESP12E-S1 5.10 3.14 56.60
544 2018-12-13 12:53:42 ESP12E-S1 4.80 2.81 56.60
543 2018-12-13 12:25:23 ESP12E-S1 4.10 2.11 59.00
542 2018-12-13 11:57:05 ESP12E-S1 3.50 1.49 60.50
541 2018-12-13 11:28:46 ESP12E-S1 3.00 1.00 63.00
540 2018-12-13 11:00:27 ESP12E-S1 2.30 0.24 63.40
539 2018-12-13 10:32:09 ESP12E-S1 1.40 -0.65 67.00
538 2018-12-13 10:03:50 ESP12E-S1 0.70 -1.36 69.40
537 2018-12-13 09:35:35 ESP12E-S1 0.40 -1.64 71.40
536 2018-12-13 09:07:20 ESP12E-S1 0.30 -1.72 72.40
535 2018-12-13 08:39:05 ESP12E-S1 0.30 -1.72 72.70
534 2018-12-13 08:11:00 ESP12E-S1 0.30 -1.74 71.80
533 2018-12-13 07:42:44 ESP12E-S1 0.50 -1.51 72.10
532 2018-12-13 07:14:35 ESP12E-S1 0.70 -1.27 72.80
531 2018-12-13 06:46:21 ESP12E-S1 0.90 -1.03 73.80
530 2018-12-13 06:18:10 ESP12E-S1 1.30 -0.57 74.60
529 2018-12-13 05:49:57 ESP12E-S1 1.60 -0.22 75.20
528 2018-12-13 05:21:55 ESP12E-S1 1.80 0.04 76.60
527 2018-12-13 04:53:38 ESP12E-S1 2.00 0.26 76.90